Regional Weather Roundup
Issued by NWS Cleveland, OH

Home | Current Version | Previous Version | Text Only | Print | Product List | Glossary On
Versions: 1 2 3 4 5 6 7 8 9 10 11 12 13 14 15 16 17 18 19 20 21 22 23 24 25 26 27 28 29 30 31 32 33 34 35 36 37 38 39 40 41 42 43 44 45 46 47 48 49 50
831
ASUS41 KCLE 210912
RWRCLE
OHIO REGIONAL WEATHER ROUNDUP
NATIONAL WEATHER SERVICE WILMINGTON, OH
500 AM EDT SAT SEP 21 2019

NOTE: "FAIR" INDICATES FEW OR NO CLOUDS BELOW 12,000 FEET WITH NO
SIGNIFICANT WEATHER AND/OR OBSTRUCTIONS TO VISIBILITY.

OHZ001>008-015>018-024>027-034-035-043-044-211000-
   NORTHWEST OHIO

CITY           SKY/WX    TMP DP  RH WIND       PRES   REMARKS
DEFIANCE       FAIR      67  64  90 CALM      30.15S
FINDLAY        FAIR      69  64  84 S7        30.15S
TOLEDO EXPRESS FAIR      67  65  93 CALM      30.15R FOG
TOLEDO EXEC    FAIR      68  65  90 CALM      30.15S
LIMA           MOCLDY    69  64  84 S3        30.17S
$$

OHZ009>014-019>023-028>033-038-089-211000-
   NORTHEAST OHIO

CITY           SKY/WX    TMP DP  RH WIND       PRES   REMARKS
CLE-HOPKINS    FAIR      67  63  87 S5        30.18R
CLE-LAKEFRONT  FAIR      71  62  73 S6        30.15R
CUY CO. ARPT   FAIR      65  61  89 MISG      30.18S
LORAIN-ELYRIA  FAIR      64  59  83 CALM      30.17S
ASHTABULA      FAIR      60  59  96 CALM      30.19S
AKRON-CANTON   FAIR      67  64  90 S5        30.19S
WOOSTER        FOG       59  59 100 CALM      30.20R VSB 1/2
MANSFIELD      FAIR      66  65  96 S7        30.19S
YOUNGSTOWN     FAIR      61  56  83 E6        30.20R
$$

OHZ042-051>053-060>062-070>072-077>081-211000-
  SOUTHWEST OHIO

CITY           SKY/WX    TMP DP  RH WIND       PRES   REMARKS
CINC-COVINGTON MOCLDY    69  63  81 SW6       30.21R
CINC-LUNKEN    FAIR      66  66 100 CALM      30.21R FOG
HAMILTON       FAIR      67  66  97 CALM      30.21R
DAYTON         FAIR      72  65  78 SW9       30.20S
WRIGHT-PAT AFB MOCLDY    69  66  90 CALM      30.19R
DAYTON GENERAL CLOUDY    73  66  78 SW5       30.20R
WILMINGTON     FAIR      67  65  93 SW5       30.21R
$$

OHZ036-037-039>041-045>050-054>059-063>069-073>076-082>088-211000-
  CENTRAL AND SOUTHEAST OHIO

CITY           SKY/WX    TMP DP  RH WIND       PRES   REMARKS
COLUMBUS       FAIR      69  65  86 S6        30.19R
OSU AIRPORT    FAIR      68  66  93 CALM      30.19S
BOLTON FIELD   FAIR      63  63  98 CALM      30.20R
RICKENBACK AFB FAIR      65  64  98 S3        30.20R
NEWARK         FOG       64  63  96 CALM      30.20R VSB 1/4
MARION         FAIR      65  63  93 S3        30.19R FOG
LANCASTER      FAIR      64  62  93 CALM      30.21R
ZANESVILLE     FAIR      66  63  90 S3        30.20R
NEW PHILLY     FAIR      63  61  93 CALM      30.20R FOG
$$




USA.gov is the U.S. government's official web portal to all federal, state and local government web resources and services.